Home   Weather   Okayama   Past weeks

Flag for Japan Past Weather in Okayama, Japan — Yesterday and Last 2 Weeks

Now
61 °F

Broken clouds.


Feels Like: 61 °F
Forecast: 43 / 68 °F
Wind: 8 mph from Southwest

Location: Okayama Airport

Current Time: Apr 27, 2017 at 4:15:45 pm

Latest Report: Apr 27, 2017 at 3:00 pm


Visibility: N/A

Pressure: 29.77 "Hg

Humidity: 55%

Dew Point: 45 °F

Location of OkayamaLocation

Past Weather in Okayama — Graph

°F

Okayama Temperature Yesterday

Maximum temperature yesterday: 59 °F (at 12:00 pm)
Minimum temperature yesterday: 55 °F (at 6:15 am)
Average temperature yesterday: 57 °F

High & Low Weather Summary for the Past Weeks

 TemperatureHumidityPressure
High75 °F (Apr 16, 1:00 pm)100% (Apr 17, 10:00 am)30.24 "Hg (Apr 17, 10:00 am)
Low39 °F (Apr 13, 6:15 am)19% (Apr 14, 3:00 pm)29.39 "Hg (Apr 17, 9:00 pm)
Average60 °F60%29.89 "Hg
* Reported Apr 12 3:00 pm — Apr 27 3:00 pm, Okayama, Weather by CustomWeather, © 2017

Note: Actual official high and low records may vary slightly from our data, if they occured in-between our weather recording intervals... More about our weather records

Advertising

Okayama Weather History for the Previous 24 Hours

Scroll right to see more
 ConditionsComfort  
Time TempWeatherWind HumidityBarometerVisibility
3:00 pm
Thu, Apr 27
61 °FBroken clouds.8 mph55%29.77 "HgN/A
2:32 pm61 °FPartly sunny.12 mph55%29.77 "HgN/A
2:00 pm63 °FBroken clouds.5 mph37%29.77 "HgN/A
1:00 pm63 °FBroken clouds.9 mph34%29.77 "HgN/A
12:00 pm61 °FBroken clouds.6 mph39%29.77 "HgN/A
11:28 am63 °FPartly sunny.6 mph42%29.77 "HgN/A
10:00 am57 °FPartly sunny.8 mph51%29.77 "HgN/A
9:00 am57 °FPartly sunny.8 mph59%29.77 "HgN/A
8:00 am55 °FPassing clouds.7 mph67%29.80 "HgN/A
7:00 am52 °FPartly sunny.2 mph82%29.77 "HgN/A
6:15 am50 °FPartly sunny.1 mph82%29.77 "HgN/A
9:00 pm
Wed, Apr 26
55 °FFog.1 mph100%29.86 "Hg3 mi
8:00 pm55 °FSprinkles. Fog.3 mph100%29.86 "Hg2 mi
7:31 pm55 °FSprinkles. Fog.3 mph100%29.86 "Hg2 mi
6:00 pm57 °FSprinkles. Fog.7 mph94%29.86 "Hg1 mi
5:00 pm57 °FSprinkles. Fog.7 mph100%29.89 "Hg2 mi
4:00 pm57 °FSprinkles. Fog.7 mph100%29.89 "Hg2 mi
Weather by CustomWeather, © 2017

See weather overviewHow to use our weather pages